CW2028 Weather Reports


Display with metric or nautical units.
time (UTC)temp
F
wind
direction
speed
MPH
gust
MPH
rain 1hr
in
rain 24hr
in
rain mn
in
humidity
%
barometer
mb
20191018212755 71 15 2.0 0.0 0.00 0.00 0.00 28 1005.7
20191018211255 71 8 1.0 0.0 0.00 0.00 0.00 29 1005.9
20191018205801 71 54 3.0 0.0 0.00 0.00 0.00 28 1005.6
20191018204256 71 352 3.0 0.0 0.00 0.00 0.00 29 1005.7
20191018202757 71 20 4.0 0.0 0.00 0.00 0.00 27 1006.0
20191018201252 71 23 4.0 0.0 0.00 0.00 0.00 27 1006.4
20191018195759 71 74 3.0 0.0 0.00 0.00 0.00 28 1006.5
20191018194255 70 57 3.0 0.0 0.00 0.00 0.00 29 1007.2
20191018192748 70 23 0.0 0.0 0.00 0.00 0.00 30 1007.0
20191018191246 70 12 4.0 0.0 0.00 0.00 0.00 32 1007.4
20191018185751 70 1 3.0 0.0 0.00 0.00 0.00 33 1007.6
20191018184248 69 48 4.0 0.0 0.00 0.00 0.00 35 1008.0
20191018182750 69 51 6.0 0.0 0.00 0.00 0.00 37 1007.6
20191018181245 68 39 5.0 0.0 0.00 0.00 0.00 37 1008.5
20191018175749 68 67 4.0 0.0 0.00 0.00 0.00 35 1008.8
20191018174250 67 74 8.0 0.0 0.00 0.00 0.00 37 1009.0
20191018172746 67 111 3.0 0.0 0.00 0.00 0.00 39 1009.8
20191018171306 66 46 4.0 0.0 0.00 0.00 0.00 40 1009.7
20191018165747 66 56 1.0 0.0 0.00 0.00 0.00 43 1010.0
20191018164303 65 62 3.0 0.0 0.00 0.00 0.00 44 1009.9
20191018162802 64 6 0.0 0.0 0.00 0.00 0.00 48 1009.7
20191018161258 62 64 1.0 0.0 0.00 0.00 0.00 50 1010.7
20191018155741 62 82 2.0 0.0 0.00 0.00 0.00 52 1010.4
20191018154246 60 51 0.0 0.0 0.00 0.00 0.00 57 1010.6
20191018152743 58 49 0.0 0.0 0.00 0.00 0.00 62 1010.8
20191018151245 56 66 0.0 0.0 0.00 0.00 0.00 64 1011.3
20191018145748 54 69 0.0 0.0 0.00 0.00 0.00 66 1010.7
20191018144246 53 112 2.0 0.0 0.00 0.00 0.00 69 1011.0
20191018142747 52 99 0.0 0.0 0.00 0.00 0.00 71 1011.1
20191018141247 50 35 0.0 0.0 0.00 0.00 0.00 72 1011.1
20191018135754 50 97 0.0 0.0 0.00 0.00 0.00 74 1011.1
20191018134256 49 103 4.0 0.0 0.00 0.00 0.00 74 1010.7
20191018132753 48 73 0.0 0.0 0.00 0.00 0.00 75 1010.6
20191018131249 47 92 0.0 0.0 0.00 0.00 0.00 74 1011.4